Regional Weather Roundup
Issued by NWS Binghamton, NY

Home | Current Version | Previous Version | Text Only | Print | Product List | Glossary On
Versions: 1 2 3 4 5 6 7 8 9 10 11 12 13 14 15 16 17 18 19 20 21 22 23 24 25 26 27 28 29 30 31 32 33 34 35 36 37 38 39 40 41 42 43 44 45 46 47 48 49 50
000
ASUS41 KBGM 231910
RWRBGM
RWRBGM
BINGHAMTON REGIONAL WEATHER ROUNDUP
NATIONAL WEATHER SERVICE BINGHAMTON NY
300 PM EDT SAT AUG 23 2014

Note: "fair" indicates few or no clouds below 12,000 feet with no
significant weather and/or obstructions to visibility.

* = Station(s) that does not report precipitation, such as rain,
snow, etc, also no thunder or fog.

!NYZ009-015>018-022>025-036-037-044>046-055>057-062-232000
...CENTRAL NEW YORK...

CITY           SKY/WX    TMP DP  RH WIND       PRES   REMARKS
BINGHAMTON     LGT RAIN  62  61  96 SE7       30.14R FOG
CORTLAND       CLOUDY    66  63  88 SE6       30.15R
DANSVILLE      PTSUNNY   74  64  71 SE12      30.07S
ELMIRA         CLOUDY    68  63  84 SE6       30.10S
ITHACA         CLOUDY    67  61  81 SE3       30.14R
HAMILTON       CLOUDY    68  61  77 SE5       30.14R
MONTICELLO     CLOUDY    64  57  77 CALM      30.15S
NORWICH        CLOUDY    66  61  82 S3        30.14S
ONEONTA        MOSUNNY   66  55  68 SE5       30.15S
PENN YAN       CLOUDY    71  63  75 SE8       30.10R
ROME           CLOUDY    71  58  63 E9        30.14S
SIDNEY         CLOUDY    70  68  94 CALM      30.13S
SYRACUSE       CLOUDY    71  63  75 E6        30.10S
$$

!PAZ038>040-043-044-047-048-072-232000
...NORTHEAST PENNSYLVANIA...

CITY           SKY/WX    TMP DP  RH WIND       PRES   REMARKS
HAZLETON       DRIZZLE   63  61  94 CALM      30.16R
SCRANTON       CLOUDY    67  61  81 W5        30.12R
TOWANDA*       PTSUNNY   64  63  94 S5        30.12S
$$
&&
KEY
WCI = WIND CHILL INDEX
VSB = VISIBILITY
HX  = HEAT INDEX
$$


USA.gov is the U.S. government's official web portal to all federal, state and local government web resources and services.